Time,TemperatureF,DewpointF,PressureIn,WindDirection,WindDirectionDegrees,WindSpeedMPH,WindSpeedGustMPH,Humidity,HourlyPrecipIn,Conditions,Clouds,dailyrainin,SoftwareType,DateUTC
2013-07-05 00:00:00,73.5,72.0,30.20,NNW,338,0.0,-999.0,95,0.00,,,0.17,Wunderground v.1.15,2013-07-05 04:00:00,
2013-07-05 00:05:00,73.5,72.0,30.20,NNW,338,0.0,-999.0,95,0.00,,,0.17,Wunderground v.1.15,2013-07-05 04:05:00,
2013-07-05 00:10:00,73.5,72.0,30.20,NNW,338,0.0,-999.0,95,0.00,,,0.17,Wunderground v.1.15,2013-07-05 04:10:00,
2013-07-05 00:15:00,73.5,72.0,30.20,NNW,338,0.0,-999.0,95,0.00,,,0.17,Wunderground v.1.15,2013-07-05 04:15:00,
2013-07-05 00:20:00,73.5,72.0,30.20,NNW,338,0.0,-999.0,95,0.00,,,0.17,Wunderground v.1.15,2013-07-05 04:20:00,
2013-07-05 00:25:00,73.5,72.0,30.20,NNW,338,0.0,-999.0,95,0.00,,,0.17,Wunderground v.1.15,2013-07-05 04:25:00,
2013-07-05 00:30:00,73.5,72.0,30.20,NNW,338,0.0,-999.0,95,0.00,,,0.17,Wunderground v.1.15,2013-07-05 04:30:00,
2013-07-05 00:35:00,73.5,72.0,30.20,NNW,338,0.0,-999.0,95,0.00,,,0.17,Wunderground v.1.15,2013-07-05 04:35:00,
2013-07-05 00:40:00,73.5,72.0,30.20,NNW,338,0.0,-999.0,95,0.00,,,0.17,Wunderground v.1.15,2013-07-05 04:40:00,
2013-07-05 00:45:00,73.7,72.5,30.19,NNE,23,1.0,-999.0,96,0.00,,,0.17,Wunderground v.1.15,2013-07-05 04:45:00,
2013-07-05 00:50:00,73.7,72.5,30.19,NNE,23,1.0,-999.0,96,0.00,,,0.17,Wunderground v.1.15,2013-07-05 04:50:00,
2013-07-05 00:55:00,73.7,72.5,30.19,NNE,23,1.0,-999.0,96,0.00,,,0.17,Wunderground v.1.15,2013-07-05 04:55:00,
2013-07-05 01:00:00,73.7,72.5,30.19,NNE,23,1.0,-999.0,96,0.00,,,0.17,Wunderground v.1.15,2013-07-05 05:00:00,
2013-07-05 01:05:00,73.7,72.5,30.19,NNE,23,1.0,-999.0,96,0.00,,,0.17,Wunderground v.1.15,2013-07-05 05:05:00,
2013-07-05 01:10:00,73.7,72.5,30.19,NNE,23,1.0,-999.0,96,0.00,,,0.17,Wunderground v.1.15,2013-07-05 05:10:00,
2013-07-05 01:15:00,73.8,72.6,30.19,North,0,0.0,-999.0,96,0.00,,,0.17,Wunderground v.1.15,2013-07-05 05:15:00,
2013-07-05 01:20:00,73.8,72.6,30.19,North,0,0.0,-999.0,96,0.00,,,0.17,Wunderground v.1.15,2013-07-05 05:20:00,
2013-07-05 01:25:00,73.8,72.6,30.19,North,0,0.0,-999.0,96,0.00,,,0.17,Wunderground v.1.15,2013-07-05 05:25:00,
2013-07-05 01:30:00,73.8,72.6,30.19,North,0,0.0,-999.0,96,0.00,,,0.17,Wunderground v.1.15,2013-07-05 05:30:00,
2013-07-05 01:35:00,73.8,72.6,30.19,North,0,0.0,-999.0,96,0.00,,,0.17,Wunderground v.1.15,2013-07-05 05:35:00,
2013-07-05 01:40:00,73.8,72.6,30.19,North,0,0.0,-999.0,96,0.00,,,0.17,Wunderground v.1.15,2013-07-05 05:40:00,
2013-07-05 01:45:00,73.9,72.7,30.19,WNW,293,0.0,-999.0,96,0.00,,,0.17,Wunderground v.1.15,2013-07-05 05:45:00,
2013-07-05 01:50:00,73.9,72.7,30.19,WNW,293,0.0,-999.0,96,0.00,,,0.17,Wunderground v.1.15,2013-07-05 05:50:00,
2013-07-05 01:55:00,73.9,72.7,30.19,WNW,293,0.0,-999.0,96,0.00,,,0.17,Wunderground v.1.15,2013-07-05 05:55:00,
2013-07-05 02:00:00,73.9,72.7,30.19,WNW,293,0.0,-999.0,96,0.00,,,0.17,Wunderground v.1.15,2013-07-05 06:00:00,
2013-07-05 02:05:00,73.9,72.7,30.19,WNW,293,0.0,-999.0,96,0.00,,,0.17,Wunderground v.1.15,2013-07-05 06:05:00,
2013-07-05 02:10:00,73.9,72.7,30.19,WNW,293,0.0,-999.0,96,0.00,,,0.17,Wunderground v.1.15,2013-07-05 06:10:00,
2013-07-05 02:15:00,73.9,72.7,30.18,NW,315,1.0,-999.0,96,0.00,,,0.17,Wunderground v.1.15,2013-07-05 06:15:00,
2013-07-05 02:20:00,73.9,72.7,30.18,NW,315,1.0,-999.0,96,0.00,,,0.17,Wunderground v.1.15,2013-07-05 06:20:00,
2013-07-05 02:25:00,73.9,72.7,30.18,NW,315,1.0,-999.0,96,0.00,,,0.17,Wunderground v.1.15,2013-07-05 06:25:00,
2013-07-05 02:30:00,73.9,72.7,30.18,NW,315,1.0,-999.0,96,0.00,,,0.17,Wunderground v.1.15,2013-07-05 06:30:00,
2013-07-05 02:35:00,73.9,72.7,30.18,NW,315,1.0,-999.0,96,0.00,,,0.17,Wunderground v.1.15,2013-07-05 06:35:00,
2013-07-05 02:40:00,73.9,72.7,30.18,NW,315,1.0,-999.0,96,0.00,,,0.17,Wunderground v.1.15,2013-07-05 06:40:00,
2013-07-05 02:45:00,74.5,73.3,30.17,WNW,293,1.0,-999.0,96,0.00,,,0.17,Wunderground v.1.15,2013-07-05 06:45:00,
2013-07-05 02:50:00,74.5,73.3,30.17,WNW,293,1.0,-999.0,96,0.00,,,0.17,Wunderground v.1.15,2013-07-05 06:50:00,
2013-07-05 02:55:00,74.5,73.3,30.17,WNW,293,1.0,-999.0,96,0.00,,,0.17,Wunderground v.1.15,2013-07-05 06:55:00,
2013-07-05 03:00:00,74.5,73.3,30.17,WNW,293,1.0,-999.0,96,0.00,,,0.17,Wunderground v.1.15,2013-07-05 07:00:00,
2013-07-05 03:05:00,74.5,73.3,30.17,WNW,293,1.0,-999.0,96,0.00,,,0.17,Wunderground v.1.15,2013-07-05 07:05:00,
2013-07-05 03:10:00,74.5,73.3,30.17,WNW,293,1.0,-999.0,96,0.00,,,0.17,Wunderground v.1.15,2013-07-05 07:10:00,
2013-07-05 03:15:00,74.1,72.6,30.18,WNW,293,1.0,-999.0,95,0.00,,,0.17,Wunderground v.1.15,2013-07-05 07:15:00,
2013-07-05 03:20:00,74.1,72.6,30.18,WNW,293,1.0,-999.0,95,0.00,,,0.17,Wunderground v.1.15,2013-07-05 07:20:00,
2013-07-05 03:25:00,74.1,72.6,30.18,WNW,293,1.0,-999.0,95,0.00,,,0.17,Wunderground v.1.15,2013-07-05 07:25:00,
2013-07-05 03:30:00,74.1,72.6,30.18,WNW,293,1.0,-999.0,95,0.00,,,0.17,Wunderground v.1.15,2013-07-05 07:30:00,
2013-07-05 03:35:00,74.1,72.6,30.18,WNW,293,1.0,-999.0,95,0.00,,,0.17,Wunderground v.1.15,2013-07-05 07:35:00,
2013-07-05 03:40:00,74.1,72.6,30.18,WNW,293,1.0,-999.0,95,0.00,,,0.17,Wunderground v.1.15,2013-07-05 07:40:00,
2013-07-05 03:45:00,74.0,72.5,30.17,NW,315,1.0,-999.0,95,0.00,,,0.17,Wunderground v.1.15,2013-07-05 07:45:00,
2013-07-05 03:50:00,74.0,72.5,30.17,NW,315,1.0,-999.0,95,0.00,,,0.17,Wunderground v.1.15,2013-07-05 07:50:00,
2013-07-05 03:55:00,74.0,72.5,30.17,NW,315,1.0,-999.0,95,0.00,,,0.17,Wunderground v.1.15,2013-07-05 07:55:00,
2013-07-05 04:00:00,74.0,72.5,30.17,NW,315,1.0,-999.0,95,0.00,,,0.17,Wunderground v.1.15,2013-07-05 08:00:00,
2013-07-05 04:05:00,74.0,72.5,30.17,NW,315,1.0,-999.0,95,0.00,,,0.17,Wunderground v.1.15,2013-07-05 08:05:00,
2013-07-05 04:10:00,74.0,72.5,30.17,NW,315,1.0,-999.0,95,0.00,,,0.17,Wunderground v.1.15,2013-07-05 08:10:00,
2013-07-05 04:15:00,74.0,72.5,30.18,NW,315,0.0,-999.0,95,0.00,,,0.17,Wunderground v.1.15,2013-07-05 08:15:00,
2013-07-05 04:20:00,74.0,72.5,30.18,NW,315,0.0,-999.0,95,0.00,,,0.17,Wunderground v.1.15,2013-07-05 08:20:00,
2013-07-05 04:25:00,74.0,72.5,30.18,NW,315,0.0,-999.0,95,0.00,,,0.17,Wunderground v.1.15,2013-07-05 08:25:00,
2013-07-05 04:30:00,74.0,72.5,30.18,NW,315,0.0,-999.0,95,0.00,,,0.17,Wunderground v.1.15,2013-07-05 08:30:00,
2013-07-05 04:35:00,74.0,72.5,30.18,NW,315,0.0,-999.0,95,0.00,,,0.17,Wunderground v.1.15,2013-07-05 08:35:00,
2013-07-05 04:40:00,74.0,72.5,30.18,NW,315,0.0,-999.0,95,0.00,,,0.17,Wunderground v.1.15,2013-07-05 08:40:00,
2013-07-05 04:45:00,73.9,72.4,30.17,NE,45,0.0,-999.0,95,0.00,,,0.17,Wunderground v.1.15,2013-07-05 08:45:00,
2013-07-05 04:50:00,73.9,72.4,30.17,NE,45,0.0,-999.0,95,0.00,,,0.17,Wunderground v.1.15,2013-07-05 08:50:00,
2013-07-05 04:55:00,73.9,72.4,30.17,NE,45,0.0,-999.0,95,0.00,,,0.17,Wunderground v.1.15,2013-07-05 08:55:00,
2013-07-05 05:00:00,73.9,72.4,30.17,NE,45,0.0,-999.0,95,0.00,,,0.17,Wunderground v.1.15,2013-07-05 09:00:00,
2013-07-05 05:05:00,73.9,72.4,30.17,NE,45,0.0,-999.0,95,0.00,,,0.17,Wunderground v.1.15,2013-07-05 09:05:00,
2013-07-05 05:10:00,73.9,72.4,30.17,NE,45,0.0,-999.0,95,0.00,,,0.17,Wunderground v.1.15,2013-07-05 09:10:00,
2013-07-05 05:15:00,74.0,72.5,30.18,NNW,338,0.0,-999.0,95,0.00,,,0.17,Wunderground v.1.15,2013-07-05 09:15:00,
2013-07-05 05:20:00,74.0,72.5,30.18,NNW,338,0.0,-999.0,95,0.00,,,0.17,Wunderground v.1.15,2013-07-05 09:20:00,
2013-07-05 05:25:00,74.0,72.5,30.18,NNW,338,0.0,-999.0,95,0.00,,,0.17,Wunderground v.1.15,2013-07-05 09:25:00,
2013-07-05 05:30:00,74.0,72.5,30.18,NNW,338,0.0,-999.0,95,0.00,,,0.17,Wunderground v.1.15,2013-07-05 09:30:00,
2013-07-05 05:35:00,74.0,72.5,30.18,NNW,338,0.0,-999.0,95,0.00,,,0.17,Wunderground v.1.15,2013-07-05 09:35:00,
2013-07-05 05:40:00,74.0,72.5,30.18,NNW,338,0.0,-999.0,95,0.00,,,0.17,Wunderground v.1.15,2013-07-05 09:40:00,
2013-07-05 05:45:00,73.9,72.4,30.18,NE,45,1.0,-999.0,95,0.00,,,0.17,Wunderground v.1.15,2013-07-05 09:45:00,
2013-07-05 05:50:00,73.9,72.4,30.18,NE,45,1.0,-999.0,95,0.00,,,0.17,Wunderground v.1.15,2013-07-05 09:50:00,
2013-07-05 05:55:00,73.9,72.4,30.18,NE,45,1.0,-999.0,95,0.00,,,0.17,Wunderground v.1.15,2013-07-05 09:55:00,
2013-07-05 06:00:00,73.9,72.4,30.18,NE,45,1.0,-999.0,95,0.00,,,0.17,Wunderground v.1.15,2013-07-05 10:00:00,
2013-07-05 06:05:00,73.9,72.4,30.18,NE,45,1.0,-999.0,95,0.00,,,0.17,Wunderground v.1.15,2013-07-05 10:05:00,
2013-07-05 06:10:00,73.9,72.4,30.18,NE,45,1.0,-999.0,95,0.00,,,0.17,Wunderground v.1.15,2013-07-05 10:10:00,
2013-07-05 06:15:00,73.9,72.4,30.19,NW,315,0.0,-999.0,95,0.00,,,0.17,Wunderground v.1.15,2013-07-05 10:15:00,
2013-07-05 06:20:00,73.9,72.4,30.19,NW,315,0.0,-999.0,95,0.00,,,0.17,Wunderground v.1.15,2013-07-05 10:20:00,
2013-07-05 06:25:00,73.9,72.4,30.19,NW,315,0.0,-999.0,95,0.00,,,0.17,Wunderground v.1.15,2013-07-05 10:25:00,
2013-07-05 06:30:00,73.9,72.4,30.19,NW,315,0.0,-999.0,95,0.00,,,0.17,Wunderground v.1.15,2013-07-05 10:30:00,
2013-07-05 06:35:00,73.9,72.4,30.19,NW,315,0.0,-999.0,95,0.00,,,0.17,Wunderground v.1.15,2013-07-05 10:35:00,
2013-07-05 06:40:00,73.9,72.4,30.19,NW,315,0.0,-999.0,95,0.00,,,0.17,Wunderground v.1.15,2013-07-05 10:40:00,
2013-07-05 06:45:00,73.9,72.4,30.20,ENE,68,0.0,-999.0,95,0.00,,,0.17,Wunderground v.1.15,2013-07-05 10:45:00,
2013-07-05 06:50:00,73.9,72.4,30.20,ENE,68,0.0,-999.0,95,0.00,,,0.17,Wunderground v.1.15,2013-07-05 10:50:00,
2013-07-05 06:55:00,73.9,72.4,30.20,ENE,68,0.0,-999.0,95,0.00,,,0.17,Wunderground v.1.15,2013-07-05 10:55:00,
2013-07-05 07:00:00,73.9,72.4,30.20,ENE,68,0.0,-999.0,95,0.00,,,0.17,Wunderground v.1.15,2013-07-05 11:00:00,
2013-07-05 07:05:00,73.9,72.4,30.20,ENE,68,0.0,-999.0,95,0.00,,,0.17,Wunderground v.1.15,2013-07-05 11:05:00,
2013-07-05 07:10:00,73.9,72.4,30.20,ENE,68,0.0,-999.0,95,0.00,,,0.17,Wunderground v.1.15,2013-07-05 11:10:00,
2013-07-05 07:15:00,74.3,72.8,30.21,ENE,68,0.0,-999.0,95,0.00,,,0.17,Wunderground v.1.15,2013-07-05 11:15:00,
2013-07-05 07:20:00,74.3,72.8,30.21,ENE,68,0.0,-999.0,95,0.00,,,0.17,Wunderground v.1.15,2013-07-05 11:20:00,
2013-07-05 07:25:00,74.3,72.8,30.21,ENE,68,0.0,-999.0,95,0.00,,,0.17,Wunderground v.1.15,2013-07-05 11:25:00,
2013-07-05 07:30:00,74.3,72.8,30.21,ENE,68,0.0,-999.0,95,0.00,,,0.17,Wunderground v.1.15,2013-07-05 11:30:00,
2013-07-05 07:35:00,74.3,72.8,30.21,ENE,68,0.0,-999.0,95,0.00,,,0.17,Wunderground v.1.15,2013-07-05 11:35:00,
2013-07-05 07:40:00,74.3,72.8,30.21,ENE,68,0.0,-999.0,95,0.00,,,0.17,Wunderground v.1.15,2013-07-05 11:40:00,
2013-07-05 07:45:00,74.7,73.2,30.21,NNE,23,1.0,-999.0,95,0.00,,,0.17,Wunderground v.1.15,2013-07-05 11:45:00,
2013-07-05 07:50:00,74.7,73.2,30.21,NNE,23,1.0,-999.0,95,0.00,,,0.17,Wunderground v.1.15,2013-07-05 11:50:00,
2013-07-05 07:55:00,74.7,73.2,30.21,NNE,23,1.0,-999.0,95,0.00,,,0.17,Wunderground v.1.15,2013-07-05 11:55:00,
2013-07-05 08:00:00,74.7,73.2,30.21,NNE,23,1.0,-999.0,95,0.00,,,0.17,Wunderground v.1.15,2013-07-05 12:00:00,
2013-07-05 08:05:00,74.7,73.2,30.21,NNE,23,1.0,-999.0,95,0.00,,,0.17,Wunderground v.1.15,2013-07-05 12:05:00,
2013-07-05 08:10:00,74.7,73.2,30.21,NNE,23,1.0,-999.0,95,0.00,,,0.17,Wunderground v.1.15,2013-07-05 12:10:00,
2013-07-05 08:15:00,75.6,73.8,30.21,West,270,0.0,-999.0,94,0.00,,,0.17,Wunderground v.1.15,2013-07-05 12:15:00,
2013-07-05 08:20:00,75.2,73.4,30.21,SE,140,0.0,0.0,94,0.00,,,0.00,Wunderground v.1.15,2013-07-05 12:20:00,
2013-07-05 08:25:00,75.6,73.8,30.21,West,270,0.0,-999.0,94,0.00,,,0.17,Wunderground v.1.15,2013-07-05 12:25:00,
2013-07-05 08:30:00,75.6,73.8,30.21,NNE,31,0.0,2.0,94,0.00,,,0.00,Wunderground v.1.15,2013-07-05 12:30:00,
2013-07-05 08:35:00,75.8,73.6,30.21,SSE,155,1.0,4.0,93,0.00,,,0.00,Wunderground v.1.15,2013-07-05 12:35:00,
2013-07-05 08:40:00,75.7,73.5,30.21,ESE,103,1.0,1.0,93,0.00,,,0.00,Wunderground v.1.15,2013-07-05 12:40:00,
2013-07-05 08:45:00,75.6,73.4,30.22,ENE,67,1.0,4.0,93,0.00,,,0.00,Wunderground v.1.15,2013-07-05 12:45:00,
2013-07-05 08:50:00,75.3,73.1,30.22,WNW,295,1.0,4.0,93,0.15,,,0.03,Wunderground v.1.15,2013-07-05 12:50:00,
2013-07-05 08:55:00,75.0,73.2,30.22,NW,313,1.0,4.0,94,0.07,,,0.03,Wunderground v.1.15,2013-07-05 12:55:00,
2013-07-05 09:00:00,74.9,73.1,30.22,NW,313,1.0,1.0,94,0.04,,,0.03,Wunderground v.1.15,2013-07-05 13:00:00,
2013-07-05 09:05:00,74.8,73.0,30.22,NNW,342,0.0,1.0,94,0.00,,,0.03,Wunderground v.1.15,2013-07-05 13:05:00,
2013-07-05 09:10:00,74.9,73.1,30.22,NE,47,0.0,0.0,94,0.00,,,0.04,Wunderground v.1.15,2013-07-05 13:10:00,
2013-07-05 09:15:00,74.9,73.1,30.22,West,270,0.0,-999.0,94,0.04,,,0.17,Wunderground v.1.15,2013-07-05 13:15:00,
2013-07-05 09:20:00,75.0,73.5,30.22,East,79,0.0,0.0,95,0.00,,,0.04,Wunderground v.1.15,2013-07-05 13:20:00,
2013-07-05 09:25:00,74.9,73.4,30.22,NW,319,0.0,2.0,95,0.00,,,0.04,Wunderground v.1.15,2013-07-05 13:25:00,
2013-07-05 09:30:00,74.9,73.1,30.22,WNW,284,1.0,1.0,94,0.00,,,0.04,Wunderground v.1.15,2013-07-05 13:30:00,
2013-07-05 09:35:00,75.0,73.2,30.22,NW,311,0.0,1.0,94,0.00,,,0.04,Wunderground v.1.15,2013-07-05 13:35:00,
2013-07-05 09:40:00,75.1,73.6,30.22,NW,311,0.0,0.0,95,0.00,,,0.04,Wunderground v.1.15,2013-07-05 13:40:00,
2013-07-05 09:45:00,75.2,73.7,30.22,NW,310,0.0,0.0,95,0.00,,,0.04,Wunderground v.1.15,2013-07-05 13:45:00,
2013-07-05 09:50:00,75.3,73.8,30.22,NE,55,0.0,0.0,95,0.00,,,0.04,Wunderground v.1.15,2013-07-05 13:50:00,
2013-07-05 09:55:00,75.4,73.6,30.22,North,5,1.0,1.0,94,0.00,,,0.04,Wunderground v.1.15,2013-07-05 13:55:00,
2013-07-05 10:00:00,75.5,73.7,30.22,NNW,344,0.0,0.0,94,0.00,,,0.04,Wunderground v.1.15,2013-07-05 14:00:00,
2013-07-05 10:05:00,75.7,73.8,30.22,ENE,71,0.0,1.0,94,0.00,,,0.04,Wunderground v.1.15,2013-07-05 14:05:00,
2013-07-05 10:10:00,75.6,73.8,30.22,NW,315,0.0,-999.0,94,0.01,,,0.17,Wunderground v.1.15,2013-07-05 14:10:00,
2013-07-05 10:15:00,76.1,74.2,30.22,WNW,295,1.0,5.0,94,0.00,,,0.04,Wunderground v.1.15,2013-07-05 14:15:00,
2013-07-05 10:20:00,76.2,74.0,30.22,WNW,289,1.0,1.0,93,0.00,,,0.04,Wunderground v.1.15,2013-07-05 14:20:00,
2013-07-05 10:25:00,76.3,74.1,30.22,WNW,284,1.0,2.0,93,0.00,,,0.04,Wunderground v.1.15,2013-07-05 14:25:00,
2013-07-05 10:30:00,76.7,74.8,30.22,WNW,293,1.0,-999.0,94,0.00,,,0.17,Wunderground v.1.15,2013-07-05 14:30:00,
2013-07-05 10:35:00,76.9,74.4,30.22,WNW,285,2.0,3.0,92,0.00,,,0.04,Wunderground v.1.15,2013-07-05 14:35:00,
2013-07-05 10:40:00,77.4,74.9,30.22,WNW,284,2.0,5.0,92,0.00,,,0.04,Wunderground v.1.15,2013-07-05 14:40:00,
2013-07-05 10:45:00,77.6,74.8,30.22,West,275,2.0,5.0,91,0.00,,,0.04,Wunderground v.1.15,2013-07-05 14:45:00,
2013-07-05 10:50:00,77.8,75.0,30.22,West,281,2.0,5.0,91,0.00,,,0.04,Wunderground v.1.15,2013-07-05 14:50:00,
2013-07-05 10:55:00,77.8,74.6,30.22,WNW,286,3.0,5.0,90,0.00,,,0.04,Wunderground v.1.15,2013-07-05 14:55:00,
2013-07-05 11:00:00,78.0,75.2,30.23,West,273,3.0,5.0,91,0.00,,,0.04,Wunderground v.1.15,2013-07-05 15:00:00,
2013-07-05 11:05:00,78.0,74.5,30.23,WNW,285,2.0,5.0,89,0.00,,,0.04,Wunderground v.1.15,2013-07-05 15:05:00,
2013-07-05 11:10:00,78.0,74.5,30.23,WNW,295,2.0,5.0,89,0.00,,,0.04,Wunderground v.1.15,2013-07-05 15:10:00,
2013-07-05 11:15:00,78.8,75.9,30.23,WNW,283,3.0,5.0,91,0.00,,,0.04,Wunderground v.1.15,2013-07-05 15:15:00,
2013-07-05 11:20:00,79.6,76.4,30.23,West,276,2.0,5.0,90,0.00,,,0.04,Wunderground v.1.15,2013-07-05 15:20:00,
2013-07-05 11:25:00,79.7,75.8,30.23,WSW,248,2.0,5.0,88,0.00,,,0.04,Wunderground v.1.15,2013-07-05 15:25:00,
2013-07-05 11:30:00,79.9,76.0,30.23,West,259,3.0,5.0,88,0.00,,,0.04,Wunderground v.1.15,2013-07-05 15:30:00,
2013-07-05 11:35:00,79.8,75.2,30.23,West,267,3.0,5.0,86,0.00,,,0.04,Wunderground v.1.15,2013-07-05 15:35:00,
2013-07-05 11:40:00,79.1,74.5,30.23,WSW,240,3.0,5.0,86,0.00,,,0.04,Wunderground v.1.15,2013-07-05 15:40:00,
2013-07-05 11:45:00,77.9,73.4,30.23,WSW,238,3.0,5.0,86,0.00,,,0.04,Wunderground v.1.15,2013-07-05 15:45:00,
2013-07-05 11:50:00,77.2,73.4,30.23,WSW,238,2.0,2.0,88,0.26,,,0.06,Wunderground v.1.15,2013-07-05 15:50:00,
2013-07-05 11:55:00,76.7,73.2,30.23,WSW,240,1.0,4.0,89,0.09,,,0.06,Wunderground v.1.15,2013-07-05 15:55:00,
2013-07-05 12:00:00,76.0,72.9,30.23,WSW,240,2.0,5.0,90,0.07,,,0.07,Wunderground v.1.15,2013-07-05 16:00:00,
2013-07-05 12:05:00,75.7,72.9,30.23,SW,228,2.0,5.0,91,0.10,,,0.08,Wunderground v.1.15,2013-07-05 16:05:00,
2013-07-05 12:10:00,75.7,73.2,30.23,SW,234,2.0,2.0,92,0.12,,,0.09,Wunderground v.1.15,2013-07-05 16:10:00,
2013-07-05 12:15:00,75.8,73.3,30.22,SW,234,0.0,5.0,92,0.06,,,0.09,Wunderground v.1.15,2013-07-05 16:15:00,
2013-07-05 12:20:00,77.3,75.4,30.22,SW,225,0.0,-999.0,94,0.06,,,0.17,Wunderground v.1.15,2013-07-05 16:20:00,
2013-07-05 12:25:00,76.4,74.2,30.22,SW,235,0.0,5.0,93,0.04,,,0.10,Wunderground v.1.15,2013-07-05 16:25:00,
2013-07-05 12:30:00,77.3,75.4,30.22,SW,222,0.0,5.0,94,0.04,,,0.10,Wunderground v.1.15,2013-07-05 16:30:00,
2013-07-05 12:35:00,77.9,75.4,30.22,WSW,237,0.0,5.0,92,0.04,,,0.10,Wunderground v.1.15,2013-07-05 16:35:00,
2013-07-05 12:40:00,77.9,75.4,30.21,SW,229,1.0,1.0,92,0.00,,,0.10,Wunderground v.1.15,2013-07-05 16:40:00,
2013-07-05 12:45:00,78.0,75.2,30.22,SW,229,1.0,5.0,91,0.00,,,0.10,Wunderground v.1.15,2013-07-05 16:45:00,
2013-07-05 12:50:00,78.3,75.5,30.22,SW,229,0.0,5.0,91,0.00,,,0.10,Wunderground v.1.15,2013-07-05 16:50:00,
2013-07-05 12:55:00,78.7,75.5,30.22,SW,229,0.0,5.0,90,0.00,,,0.10,Wunderground v.1.15,2013-07-05 16:55:00,
2013-07-05 13:00:00,78.8,75.3,30.22,SW,229,0.0,5.0,89,0.00,,,0.10,Wunderground v.1.15,2013-07-05 17:00:00,
2013-07-05 13:05:00,79.1,75.9,30.21,SW,229,0.0,5.0,90,0.00,,,0.10,Wunderground v.1.15,2013-07-05 17:05:00,
2013-07-05 13:10:00,79.3,75.8,30.21,WSW,246,0.0,5.0,89,0.00,,,0.10,Wunderground v.1.15,2013-07-05 17:10:00,
2013-07-05 13:15:00,79.6,76.1,30.21,SW,236,2.0,5.0,89,0.00,,,0.10,Wunderground v.1.15,2013-07-05 17:15:00,
2013-07-05 13:20:00,79.8,76.3,30.21,SW,223,2.0,5.0,89,0.00,,,0.10,Wunderground v.1.15,2013-07-05 17:20:00,
2013-07-05 13:25:00,80.1,76.2,30.20,WSW,238,2.0,5.0,88,0.00,,,0.10,Wunderground v.1.15,2013-07-05 17:25:00,
2013-07-05 13:30:00,80.3,76.1,30.20,WSW,250,1.0,1.0,87,0.00,,,0.10,Wunderground v.1.15,2013-07-05 17:30:00,
2013-07-05 13:35:00,80.3,76.1,30.20,SW,236,1.0,5.0,87,0.00,,,0.10,Wunderground v.1.15,2013-07-05 17:35:00,
2013-07-05 13:40:00,80.6,76.0,30.20,WSW,243,1.0,5.0,86,0.00,,,0.10,Wunderground v.1.15,2013-07-05 17:40:00,
2013-07-05 13:45:00,80.4,75.5,30.20,SW,219,2.0,5.0,85,0.00,,,0.10,Wunderground v.1.15,2013-07-05 17:45:00,
2013-07-05 13:50:00,80.2,75.6,30.20,WSW,257,3.0,5.0,86,0.00,,,0.10,Wunderground v.1.15,2013-07-05 17:50:00,
2013-07-05 13:55:00,80.3,75.4,30.20,SW,231,4.0,5.0,85,0.00,,,0.10,Wunderground v.1.15,2013-07-05 17:55:00,
2013-07-05 14:00:00,80.2,75.3,30.20,WSW,243,4.0,4.0,85,0.00,,,0.10,Wunderground v.1.15,2013-07-05 18:00:00,
2013-07-05 14:05:00,79.8,75.2,30.20,WSW,240,3.0,5.0,86,0.00,,,0.10,Wunderground v.1.15,2013-07-05 18:05:00,
2013-07-05 14:10:00,80.3,76.4,30.20,WSW,248,2.0,2.0,88,0.00,,,0.10,Wunderground v.1.15,2013-07-05 18:10:00,
2013-07-05 14:15:00,80.0,75.8,30.19,SW,226,2.0,5.0,87,0.00,,,0.10,Wunderground v.1.15,2013-07-05 18:15:00,
2013-07-05 14:20:00,79.6,75.7,30.19,SW,218,3.0,3.0,88,0.00,,,0.10,Wunderground v.1.15,2013-07-05 18:20:00,
2013-07-05 14:25:00,79.3,75.4,30.19,SW,227,4.0,4.0,88,0.00,,,0.10,Wunderground v.1.15,2013-07-05 18:25:00,
2013-07-05 14:30:00,79.1,74.9,30.18,SW,235,3.0,3.0,87,0.00,,,0.10,Wunderground v.1.15,2013-07-05 18:30:00,
2013-07-05 14:35:00,79.3,75.8,30.18,SW,235,2.0,5.0,89,0.00,,,0.10,Wunderground v.1.15,2013-07-05 18:35:00,
2013-07-05 14:40:00,80.1,76.2,30.18,SW,235,0.0,5.0,88,0.00,,,0.10,Wunderground v.1.15,2013-07-05 18:40:00,
2013-07-05 14:45:00,81.1,77.2,30.18,SW,235,0.0,5.0,88,0.00,,,0.10,Wunderground v.1.15,2013-07-05 18:45:00,
2013-07-05 14:50:00,81.8,77.5,30.18,SW,229,1.0,1.0,87,0.00,,,0.10,Wunderground v.1.15,2013-07-05 18:50:00,
2013-07-05 14:55:00,82.8,77.8,30.18,North,5,1.0,5.0,85,0.00,,,0.10,Wunderground v.1.15,2013-07-05 18:55:00,
2013-07-05 15:00:00,83.3,77.2,30.18,SE,146,0.0,5.0,82,0.00,,,0.10,Wunderground v.1.15,2013-07-05 19:00:00,
2013-07-05 15:05:00,83.4,76.6,30.18,SSE,147,0.0,5.0,80,0.00,,,0.10,Wunderground v.1.15,2013-07-05 19:05:00,
2013-07-05 15:10:00,83.2,76.4,30.17,ENE,65,0.0,5.0,80,0.00,,,0.10,Wunderground v.1.15,2013-07-05 19:10:00,
2013-07-05 15:15:00,82.9,75.3,30.18,East,92,0.0,5.0,78,0.00,,,0.10,Wunderground v.1.15,2013-07-05 19:15:00,
2013-07-05 15:20:00,82.5,75.7,30.18,East,92,0.0,5.0,80,0.00,,,0.10,Wunderground v.1.15,2013-07-05 19:20:00,
2013-07-05 15:25:00,82.3,75.9,30.17,East,92,0.0,5.0,81,0.00,,,0.10,Wunderground v.1.15,2013-07-05 19:25:00,
2013-07-05 15:30:00,82.2,76.5,30.17,East,92,0.0,5.0,83,0.00,,,0.10,Wunderground v.1.15,2013-07-05 19:30:00,
2013-07-05 15:35:00,81.8,75.8,30.17,East,92,0.0,5.0,82,0.00,,,0.10,Wunderground v.1.15,2013-07-05 19:35:00,
2013-07-05 15:40:00,81.4,75.7,30.17,East,92,0.0,5.0,83,0.00,,,0.10,Wunderground v.1.15,2013-07-05 19:40:00,
2013-07-05 15:45:00,80.9,75.6,30.17,East,92,0.0,5.0,84,0.00,,,0.10,Wunderground v.1.15,2013-07-05 19:45:00,
2013-07-05 15:50:00,80.9,76.0,30.17,East,92,0.0,5.0,85,0.00,,,0.10,Wunderground v.1.15,2013-07-05 19:50:00,
2013-07-05 15:55:00,80.5,75.9,30.18,WSW,237,1.0,5.0,86,0.00,,,0.10,Wunderground v.1.15,2013-07-05 19:55:00,
2013-07-05 16:00:00,79.2,73.6,30.18,SW,235,4.0,6.0,83,0.00,,,0.10,Wunderground v.1.15,2013-07-05 20:00:00,
2013-07-05 16:05:00,77.9,72.7,30.18,SW,217,6.0,6.0,84,0.00,,,0.10,Wunderground v.1.15,2013-07-05 20:05:00,
2013-07-05 16:10:00,77.3,72.4,30.18,WSW,254,6.0,6.0,85,0.00,,,0.10,Wunderground v.1.15,2013-07-05 20:10:00,
2013-07-05 16:15:00,77.0,72.1,30.18,West,277,4.0,6.0,85,0.00,,,0.10,Wunderground v.1.15,2013-07-05 20:15:00,
2013-07-05 16:20:00,76.7,71.5,30.18,WSW,240,4.0,4.0,84,0.00,,,0.10,Wunderground v.1.15,2013-07-05 20:20:00,
2013-07-05 16:25:00,76.5,71.3,30.18,West,261,3.0,5.0,84,0.00,,,0.10,Wunderground v.1.15,2013-07-05 20:25:00,
2013-07-05 16:30:00,76.3,71.1,30.19,West,276,2.0,2.0,84,0.51,,,0.12,Wunderground v.1.15,2013-07-05 20:30:00,
2013-07-05 16:35:00,75.8,71.3,30.19,West,263,2.0,5.0,86,0.17,,,0.13,Wunderground v.1.15,2013-07-05 20:35:00,
2013-07-05 16:40:00,76.3,71.1,30.19,WSW,248,4.0,-999.0,84,0.02,,,0.17,Wunderground v.1.15,2013-07-05 20:40:00,
2013-07-05 16:45:00,74.8,71.0,30.18,West,261,2.0,5.0,88,0.05,,,0.13,Wunderground v.1.15,2013-07-05 20:45:00,
2013-07-05 16:50:00,74.7,70.9,30.17,West,264,2.0,2.0,88,0.00,,,0.13,Wunderground v.1.15,2013-07-05 20:50:00,
2013-07-05 16:55:00,74.7,71.2,30.17,West,261,1.0,5.0,89,0.00,,,0.13,Wunderground v.1.15,2013-07-05 20:55:00,
2013-07-05 17:00:00,74.7,71.2,30.17,West,261,1.0,1.0,89,0.00,,,0.13,Wunderground v.1.15,2013-07-05 21:00:00,
2013-07-05 17:05:00,74.9,71.8,30.16,West,261,0.0,1.0,90,0.00,,,0.13,Wunderground v.1.15,2013-07-05 21:05:00,
2013-07-05 17:10:00,74.9,71.4,30.16,West,261,0.0,0.0,89,0.00,,,0.13,Wunderground v.1.15,2013-07-05 21:10:00,
2013-07-05 17:15:00,75.0,71.9,30.16,West,261,0.0,0.0,90,0.00,,,0.13,Wunderground v.1.15,2013-07-05 21:15:00,
2013-07-05 17:20:00,75.1,72.0,30.17,West,261,0.0,0.0,90,0.00,,,0.13,Wunderground v.1.15,2013-07-05 21:20:00,
2013-07-05 17:25:00,75.1,72.0,30.17,West,261,0.0,0.0,90,0.00,,,0.13,Wunderground v.1.15,2013-07-05 21:25:00,
2013-07-05 17:30:00,75.2,72.1,30.17,West,261,0.0,0.0,90,0.00,,,0.13,Wunderground v.1.15,2013-07-05 21:30:00,
2013-07-05 17:35:00,75.5,72.4,30.17,West,261,0.0,0.0,90,0.00,,,0.13,Wunderground v.1.15,2013-07-05 21:35:00,
2013-07-05 17:40:00,75.7,72.6,30.17,West,261,0.0,0.0,90,0.00,,,0.13,Wunderground v.1.15,2013-07-05 21:40:00,
2013-07-05 17:45:00,75.9,72.8,30.17,West,261,0.0,0.0,90,0.00,,,0.13,Wunderground v.1.15,2013-07-05 21:45:00,
2013-07-05 17:50:00,76.0,72.9,30.17,West,261,0.0,0.0,90,0.00,,,0.13,Wunderground v.1.15,2013-07-05 21:50:00,
2013-07-05 17:55:00,76.0,72.5,30.17,West,261,0.0,0.0,89,0.00,,,0.13,Wunderground v.1.15,2013-07-05 21:55:00,
2013-07-05 18:00:00,76.2,73.1,30.17,West,261,0.0,0.0,90,0.00,,,0.13,Wunderground v.1.15,2013-07-05 22:00:00,
2013-07-05 18:05:00,76.3,72.8,30.17,West,261,0.0,7.0,89,0.00,,,0.13,Wunderground v.1.15,2013-07-05 22:05:00,
2013-07-05 18:10:00,76.3,72.8,30.17,West,261,0.0,7.0,89,0.00,,,0.13,Wunderground v.1.15,2013-07-05 22:10:00,
2013-07-05 18:15:00,76.4,72.9,30.17,West,261,0.0,7.0,89,0.00,,,0.13,Wunderground v.1.15,2013-07-05 22:15:00,
2013-07-05 18:20:00,76.4,72.9,30.17,WSW,257,0.0,7.0,89,0.00,,,0.13,Wunderground v.1.15,2013-07-05 22:20:00,
2013-07-05 18:25:00,76.4,72.9,30.17,SW,235,1.0,7.0,89,0.00,,,0.13,Wunderground v.1.15,2013-07-05 22:25:00,
2013-07-05 18:30:00,76.3,72.8,30.17,SW,234,1.0,1.0,89,0.00,,,0.13,Wunderground v.1.15,2013-07-05 22:30:00,
2013-07-05 18:35:00,76.3,72.8,30.17,West,270,0.0,-999.0,89,0.00,,,0.17,Wunderground v.1.15,2013-07-05 22:35:00,
2013-07-05 18:40:00,76.1,72.6,30.17,WSW,241,1.0,1.0,89,0.00,,,0.13,Wunderground v.1.15,2013-07-05 22:40:00,
2013-07-05 18:45:00,76.1,72.6,30.17,WSW,241,1.0,7.0,89,0.00,,,0.13,Wunderground v.1.15,2013-07-05 22:45:00,
2013-07-05 18:50:00,76.2,72.7,30.17,WSW,241,0.0,7.0,89,0.00,,,0.13,Wunderground v.1.15,2013-07-05 22:50:00,
2013-07-05 18:55:00,76.1,73.0,30.18,WSW,241,0.0,7.0,90,0.00,,,0.13,Wunderground v.1.15,2013-07-05 22:55:00,
2013-07-05 19:00:00,76.0,72.5,30.18,WSW,241,0.0,7.0,89,0.00,,,0.13,Wunderground v.1.15,2013-07-05 23:00:00,
2013-07-05 19:05:00,75.9,72.4,30.18,WSW,240,0.0,7.0,89,0.00,,,0.13,Wunderground v.1.15,2013-07-05 23:05:00,
2013-07-05 19:10:00,75.9,72.4,30.18,WSW,240,0.0,7.0,89,0.00,,,0.13,Wunderground v.1.15,2013-07-05 23:10:00,
2013-07-05 19:15:00,76.0,72.9,30.19,WSW,240,0.0,7.0,90,0.00,,,0.13,Wunderground v.1.15,2013-07-05 23:15:00,
2013-07-05 19:20:00,76.0,72.9,30.19,WSW,240,0.0,7.0,90,0.00,,,0.13,Wunderground v.1.15,2013-07-05 23:20:00,
2013-07-05 19:25:00,75.9,72.8,30.19,WSW,240,0.0,7.0,90,0.70,,,0.15,Wunderground v.1.15,2013-07-05 23:25:00,
2013-07-05 19:30:00,75.9,73.1,30.19,WSW,240,0.0,7.0,91,0.12,,,0.16,Wunderground v.1.15,2013-07-05 23:30:00,
2013-07-05 19:35:00,75.9,73.1,30.19,WSW,240,0.0,7.0,91,0.06,,,0.16,Wunderground v.1.15,2013-07-05 23:35:00,
2013-07-05 19:40:00,75.7,72.9,30.18,WSW,240,0.0,7.0,91,0.04,,,0.16,Wunderground v.1.15,2013-07-05 23:40:00,
2013-07-05 19:45:00,75.6,72.8,30.18,WSW,240,0.0,7.0,91,0.00,,,0.17,Wunderground v.1.15,2013-07-05 23:45:00,
2013-07-05 19:50:00,75.6,73.1,30.18,WSW,240,0.0,7.0,92,0.00,,,0.17,Wunderground v.1.15,2013-07-05 23:50:00,
2013-07-05 19:55:00,75.6,73.1,30.18,WSW,240,0.0,7.0,92,0.00,,,0.17,Wunderground v.1.15,2013-07-05 23:55:00,
2013-07-05 20:00:00,75.5,73.0,30.18,WSW,240,0.0,7.0,92,0.00,,,0.17,Wunderground v.1.15,2013-07-06 00:00:00,
2013-07-05 20:05:00,75.5,73.0,30.18,WSW,248,0.0,-999.0,92,0.04,,,0.17,Wunderground v.1.15,2013-07-06 00:05:00,
2013-07-05 20:10:00,75.4,72.9,30.18,WSW,240,0.0,7.0,92,0.00,,,0.17,Wunderground v.1.15,2013-07-06 00:10:00,
2013-07-05 20:15:00,75.5,73.3,30.17,WSW,240,0.0,7.0,93,0.00,,,0.17,Wunderground v.1.15,2013-07-06 00:15:00,
2013-07-05 20:20:00,75.5,73.3,30.17,WSW,240,0.0,7.0,93,0.00,,,0.17,Wunderground v.1.15,2013-07-06 00:20:00,
2013-07-05 20:25:00,75.5,73.3,30.18,WSW,240,0.0,7.0,93,0.00,,,0.17,Wunderground v.1.15,2013-07-06 00:25:00,
2013-07-05 20:30:00,75.4,73.2,30.17,WSW,240,0.0,7.0,93,0.00,,,0.17,Wunderground v.1.15,2013-07-06 00:30:00,
2013-07-05 20:35:00,75.3,73.1,30.17,WSW,240,0.0,7.0,93,0.00,,,0.17,Wunderground v.1.15,2013-07-06 00:35:00,
2013-07-05 20:40:00,75.2,73.0,30.17,WSW,240,0.0,7.0,93,0.00,,,0.17,Wunderground v.1.15,2013-07-06 00:40:00,
2013-07-05 20:45:00,75.1,72.9,30.17,WSW,240,0.0,7.0,93,0.00,,,0.17,Wunderground v.1.15,2013-07-06 00:45:00,
2013-07-05 20:50:00,74.9,72.7,30.17,WSW,240,0.0,7.0,93,0.00,,,0.17,Wunderground v.1.15,2013-07-06 00:50:00,
2013-07-05 20:55:00,74.8,72.6,30.17,WSW,240,0.0,7.0,93,0.00,,,0.17,Wunderground v.1.15,2013-07-06 00:55:00,
2013-07-05 21:00:00,74.7,72.5,30.17,WSW,240,0.0,7.0,93,0.00,,,0.17,Wunderground v.1.15,2013-07-06 01:00:00,
2013-07-05 21:05:00,74.6,72.4,30.18,WSW,240,0.0,7.0,93,0.00,,,0.17,Wunderground v.1.15,2013-07-06 01:05:00,
2013-07-05 21:10:00,74.5,72.7,30.18,WSW,240,0.0,7.0,94,0.00,,,0.17,Wunderground v.1.15,2013-07-06 01:10:00,
2013-07-05 21:15:00,74.5,72.7,30.18,WSW,240,0.0,7.0,94,0.00,,,0.17,Wunderground v.1.15,2013-07-06 01:15:00,
2013-07-05 21:20:00,74.4,72.6,30.18,WSW,240,0.0,7.0,94,0.00,,,0.17,Wunderground v.1.15,2013-07-06 01:20:00,
2013-07-05 21:25:00,74.4,72.6,30.18,WSW,240,0.0,7.0,94,0.00,,,0.17,Wunderground v.1.15,2013-07-06 01:25:00,
2013-07-05 21:30:00,74.4,72.6,30.18,WSW,240,0.0,7.0,94,0.00,,,0.17,Wunderground v.1.15,2013-07-06 01:30:00,
2013-07-05 21:35:00,74.4,72.6,30.19,WSW,240,0.0,7.0,94,0.00,,,0.17,Wunderground v.1.15,2013-07-06 01:35:00,
2013-07-05 21:40:00,74.4,72.6,30.19,WSW,240,0.0,7.0,94,0.00,,,0.17,Wunderground v.1.15,2013-07-06 01:40:00,
2013-07-05 21:45:00,74.4,72.6,30.20,WSW,240,0.0,7.0,94,0.00,,,0.17,Wunderground v.1.15,2013-07-06 01:45:00,
2013-07-05 21:50:00,74.4,72.6,30.20,WSW,240,0.0,7.0,94,0.00,,,0.17,Wunderground v.1.15,2013-07-06 01:50:00,
2013-07-05 21:55:00,74.4,72.9,30.20,WSW,240,0.0,7.0,95,0.00,,,0.17,Wunderground v.1.15,2013-07-06 01:55:00,
2013-07-05 22:00:00,74.4,72.9,30.20,WSW,240,0.0,7.0,95,0.00,,,0.17,Wunderground v.1.15,2013-07-06 02:00:00,
2013-07-05 22:05:00,74.4,72.9,30.20,N/A,-737280,0.0,-999.0,95,0.00,,,0.17,Wunderground v.1.15,2013-07-06 02:05:00,
2013-07-05 22:10:00,74.5,73.0,30.20,WSW,240,0.0,7.0,95,0.00,,,0.17,Wunderground v.1.15,2013-07-06 02:10:00,
2013-07-05 22:15:00,74.5,73.0,30.20,WSW,240,0.0,7.0,95,0.00,,,0.17,Wunderground v.1.15,2013-07-06 02:15:00,
2013-07-05 22:20:00,74.5,73.0,30.20,WSW,240,0.0,7.0,95,0.00,,,0.17,Wunderground v.1.15,2013-07-06 02:20:00,
2013-07-05 22:25:00,74.6,73.1,30.20,WSW,240,0.0,7.0,95,0.00,,,0.17,Wunderground v.1.15,2013-07-06 02:25:00,
2013-07-05 22:30:00,74.6,73.1,30.20,WSW,240,0.0,7.0,95,0.00,,,0.17,Wunderground v.1.15,2013-07-06 02:30:00,
2013-07-05 22:35:00,74.6,73.1,30.20,N/A,-737280,0.0,-999.0,95,0.00,,,0.17,Wunderground v.1.15,2013-07-06 02:35:00,
2013-07-05 22:40:00,74.6,73.1,30.20,N/A,-737280,0.0,-999.0,95,0.00,,,0.17,Wunderground v.1.15,2013-07-06 02:40:00,
2013-07-05 22:45:00,74.7,73.2,30.20,N/A,-737280,0.0,-999.0,95,0.00,,,0.17,Wunderground v.1.15,2013-07-06 02:45:00,
2013-07-05 22:50:00,74.7,73.2,30.20,N/A,-737280,0.0,-999.0,95,0.00,,,0.17,Wunderground v.1.15,2013-07-06 02:50:00,
2013-07-05 22:55:00,74.7,73.2,30.20,N/A,-737280,0.0,-999.0,95,0.00,,,0.17,Wunderground v.1.15,2013-07-06 02:55:00,
2013-07-05 23:00:00,74.7,73.2,30.20,N/A,-737280,0.0,-999.0,95,0.00,,,0.17,Wunderground v.1.15,2013-07-06 03:00:00,
2013-07-05 23:05:00,74.7,73.2,30.20,N/A,-737280,0.0,-999.0,95,0.00,,,0.17,Wunderground v.1.15,2013-07-06 03:05:00,
2013-07-05 23:10:00,74.7,73.2,30.20,N/A,-737280,0.0,-999.0,95,0.00,,,0.17,Wunderground v.1.15,2013-07-06 03:10:00,
2013-07-05 23:15:00,74.5,73.0,30.21,N/A,-737280,0.0,-999.0,95,0.00,,,0.17,Wunderground v.1.15,2013-07-06 03:15:00,
2013-07-05 23:20:00,74.5,73.0,30.21,N/A,-737280,0.0,-999.0,95,0.00,,,0.17,Wunderground v.1.15,2013-07-06 03:20:00,
2013-07-05 23:25:00,74.5,73.0,30.21,N/A,-737280,0.0,-999.0,95,0.00,,,0.17,Wunderground v.1.15,2013-07-06 03:25:00,
2013-07-05 23:30:00,74.5,73.0,30.21,N/A,-737280,0.0,-999.0,95,0.00,,,0.17,Wunderground v.1.15,2013-07-06 03:30:00,
2013-07-05 23:35:00,74.5,73.0,30.21,N/A,-737280,0.0,-999.0,95,0.00,,,0.17,Wunderground v.1.15,2013-07-06 03:35:00,
2013-07-05 23:40:00,74.5,73.0,30.21,N/A,-737280,0.0,-999.0,95,0.00,,,0.17,Wunderground v.1.15,2013-07-06 03:40:00,
2013-07-05 23:45:00,75.1,73.3,30.20,WNW,293,1.0,-999.0,94,0.00,,,0.17,Wunderground v.1.15,2013-07-06 03:45:00,
2013-07-05 23:50:00,75.1,73.3,30.20,WNW,293,1.0,-999.0,94,0.00,,,0.17,Wunderground v.1.15,2013-07-06 03:50:00,
2013-07-05 23:55:00,75.1,73.3,30.20,WNW,293,1.0,-999.0,94,0.00,,,0.17,Wunderground v.1.15,2013-07-06 03:55:00,